User: anonymous   Login
Location: Unspecified
(0.0000°N, 0.0000°E)
Time: 21:50:16
(UTC+02:00)
Language:

GPS 2-12 Rocket1 - Orbit

View from above orbital plane
View from above orbital plane
View from above satellite
View from above satellite

Ground track
Ground track

The orbit data is extracted from the following two-line orbital elements,

1 21891U 92009B   15147.56665702  .00001311  00000-0  10940-3 0  9999
2 21891 019.9977 308.5031 0047920 167.4408 192.7212 14.82105188254572
Epoch (UTC): 27 May 2015 13:35:59
Eccentricity: 0.0047920
inclination: 19.9977°
perigee height: 589 km
apogee height: 656 km
right ascension of ascending node: 308.5031°
argument of perigee: 167.4408°
revolutions per day: 14.82105188
mean anomaly at epoch: 192.7212°
orbit number at epoch: 25457

The dashed part of the orbit path shows where the satellite is in the earth's shadow,  

DLR